Cosmos 2056 Rocket - Orbit

View from above orbital plane
View from above orbital plane
View from above satellite
View from above satellite

Ground track
Ground track

The orbit data is extracted from the following two-line orbital elements,

1 20433U 90004B   13141.17429574  .00000150  00000-0  60749-4 0  4434
2 20433 074.0361 206.9074 0042133 337.4761 085.3241 14.35433162221647
Epoch (UTC): 21 May 2013 04:10:59
Eccentricity: 0.0042133
inclination: 74.0361°
perigee height: 743 km
apogee height: 804 km
right ascension of ascending node: 206.9074°
argument of perigee: 337.4761°
revolutions per day: 14.35433162
mean anomaly at epoch: 85.3241°
orbit number at epoch: 22164

The dashed part of the orbit path shows where the satellite is in the earth's shadow,  

Developed and maintained by Chris Peat, Heavens-Above GmbH. Please read the updated FAQ before sending e-mail. Imprint. DLR